This demonstration page uses our WeatherBlox Daily Observations layout. Learn more.

Left ArrowRight Arrow

53.62937, 11.41316

Hourly Observations for July 9, 2022

Temp ( °F °C ) Dew Point ( °F °C ) Humidity (%) Winds ( mph kmh ) Pressure ( in mb ) Visibility ( mi km ) Precip ( " mm )
12:20 am 00:20 Cloudy 59 15 52 11 77 77 WNW 8 13 30.27 1025 30 48 N/A
12:50 am 00:50 Cloudy 59 15 52 11 77 77 WNW 7 11 30.27 1025 30 48 N/A
1:20 am 01:20 Cloudy 59 15 52 11 77 77 NW 10 17 30.27 1025 30 48 N/A
1:50 am 01:50 Cloudy 59 15 52 11 77 77 WNW 8 13 30.27 1025 30 48 N/A
2:20 am 02:20 Cloudy 59 15 52 11 77 77 WNW 7 11 30.27 1025 30 48 N/A
2:50 am 02:50 Cloudy 59 15 54 12 82 82 WNW 6 9 30.27 1025 30 48 N/A
3:20 am 03:20 Cloudy 59 15 54 12 82 82 WNW 7 11 30.27 1025 30 48 N/A
3:50 am 03:50 Cloudy 57 14 54 12 88 88 W 6 9 30.24 1024 30 48 N/A
4:20 am 04:20 Cloudy 57 14 54 12 88 88 W 5 7 30.24 1024 30 48 N/A
4:50 am 04:50 Cloudy 57 14 54 12 88 88 VRB 3 6 30.24 1024 30 48 N/A
5:20 am 05:20 Cloudy 57 14 54 12 88 88 W 5 7 30.24 1024 30 48 N/A
5:50 am 05:50 Mostly Cloudy 57 14 54 12 88 88 WSW 5 7 30.21 1023 30 48 N/A
6:20 am 06:20 Mostly Cloudy with Light Showers 59 15 55 13 88 88 W 5 7 30.21 1023 5 8 N/A
6:50 am 06:50 Cloudy 57 14 55 13 94 94 W 6 9 30.21 1023 30 48 N/A
7:20 am 07:20 Mostly Cloudy 59 15 57 14 94 94 W 7 11 30.21 1023 30 48 N/A
7:50 am 07:50 Mostly Cloudy 59 15 57 14 94 94 W 7 11 30.21 1023 30 48 N/A
8:20 am 08:20 Mostly Cloudy 61 16 57 14 88 88 W 9 15 30.21 1023 30 48 N/A
8:50 am 08:50 Mostly Cloudy 63 17 57 14 83 83 WNW 8 13 30.18 1022 30 48 N/A
9:20 am 09:20 Cloudy 63 17 57 14 83 83 W 9 15 30.18 1022 30 48 N/A
9:50 am 09:50 Mostly Cloudy 64 18 57 14 78 78 WNW 9 15 30.18 1022 30 48 N/A
10:20 am 10:20 Mostly Cloudy 64 18 59 15 83 83 WNW 9 15 30.18 1022 30 48 N/A
10:50 am 10:50 Mostly Cloudy 68 20 57 14 69 69 NW 9 15 30.18 1022 30 48 N/A
11:20 am 11:20 Partly Cloudy with Showers Nearby 68 20 55 13 64 64 WNW 12 19 30.18 1022 30 48 N/A
11:50 am 11:50 Partly Cloudy with Showers Nearby 68 20 61 16 78 78 WNW 9 15 30.18 1022 30 48 N/A
12:20 pm 12:20 Partly Cloudy with Showers Nearby 70 21 55 13 60 60 WNW 13 20 30.15 1021 30 48 N/A
12:50 pm 12:50 Partly Cloudy with Showers Nearby 72 22 54 12 53 53 NW 15 24 30.15 1021 30 48 N/A
1:20 pm 13:20 Partly Cloudy with Showers Nearby 72 22 54 12 53 53 NW 14 22 30.15 1021 30 48 N/A
1:50 pm 13:50 Partly Cloudy with Showers Nearby 72 22 55 13 57 57 WNW 14 22 30.15 1021 30 48 N/A
2:20 pm 14:20 Partly Cloudy 73 23 55 13 53 53 NW 14 22 30.15 1021 30 48 N/A
2:50 pm 14:50 Partly Cloudy 70 21 54 12 57 57 WNW 16 26 30.15 1021 30 48 N/A
3:20 pm 15:20 Partly Cloudy 70 21 52 11 53 53 NW 17 28 30.15 1021 30 48 N/A
3:50 pm 15:50 Partly Cloudy 70 21 52 11 53 53 WNW 16 26 30.15 1021 30 48 N/A
4:20 pm 16:20 Partly Cloudy 68 20 48 9 49 49 NW 17 28 30.15 1021 30 48 N/A
4:50 pm 16:50 Partly Cloudy 66 19 48 9 52 52 WNW 16 26 30.15 1021 30 48 N/A
5:20 pm 17:20 Partly Cloudy 66 19 46 8 49 49 NW 17 28 30.15 1021 30 48 N/A
5:50 pm 17:50 Partly Cloudy 64 18 46 8 52 52 NW 14 22 30.15 1021 30 48 N/A
6:20 pm 18:20 Mostly Sunny 64 18 46 8 52 52 NW 14 22 30.15 1021 30 48 N/A
6:50 pm 18:50 Partly Cloudy 63 17 48 9 59 59 WNW 16 26 30.15 1021 30 48 N/A
7:20 pm 19:20 Partly Cloudy 63 17 48 9 59 59 WNW 15 24 30.18 1022 30 48 N/A
7:50 pm 19:50 Partly Cloudy 61 16 48 9 63 63 WNW 13 20 30.15 1021 30 48 N/A
8:20 pm 20:20 Partly Cloudy 61 16 46 8 59 59 NW 13 20 30.15 1021 30 48 N/A
8:50 pm 20:50 Mostly Sunny 61 16 46 8 59 59 NW 13 20 30.15 1021 7 11 N/A
9:20 pm 21:20 Mostly Cloudy 59 15 46 8 63 63 WNW 10 17 30.15 1021 30 48 N/A
9:50 pm 21:50 Mostly Clear 59 15 46 8 63 63 WNW 8 13 30.15 1021 30 48 N/A
10:20 pm 22:20 Mostly Cloudy 59 15 46 8 63 63 WNW 12 19 30.15 1021 30 48 N/A
10:50 pm 22:50 Mostly Cloudy 57 14 48 9 72 72 WNW 9 15 30.15 1021 30 48 N/A
11:20 pm 23:20 Mostly Cloudy 55 13 50 10 82 82 NW 13 20 30.15 1021 3 5 N/A
11:50 pm 23:50 Mostly Cloudy 54 12 50 10 88 88 WNW 7 11 30.15 1021 30 48 N/A

Powered by AerisWeather